User: anonymous   Login
Location: Onan Observatory
(44.8103°N, 93.9397°W)
Time: 16:40:53
(UTC-05:00)
Language:

Iridium 90 - Orbit

View from above orbital plane
View from above orbital plane
View from above satellite
View from above satellite

Ground track
Ground track

The orbit data is extracted from the following two-line orbital elements,

1 27373U 02005B   16181.42484566  .00000132  00000-0  33552-4 0  9993
2 27373  86.4487 137.5479 0002478  87.9293 272.2192 14.42957711760487
Epoch (UTC): 29 June 2016 10:11:46
Eccentricity: 0.0002478
inclination: 86.4487°
perigee height: 747 km
apogee height: 750 km
right ascension of ascending node: 137.5479°
argument of perigee: 87.9293°
revolutions per day: 14.42957711
mean anomaly at epoch: 272.2192°
orbit number at epoch: 76048

The dashed part of the orbit path shows where the satellite is in the earth's shadow,  

DLR